Time,TemperatureF,DewpointF,PressureIn,WindDirection,WindDirectionDegrees,WindSpeedMPH,WindSpeedGustMPH,Humidity,HourlyPrecipIn,Conditions,Clouds,dailyrainin,SoftwareType,DateUTC
2013-04-25 00:03:00,48.6,31.3,30.38,ENE,77,0.0,2.0,51,0.00,,,0.00,Weather View 32 v70,2013-04-25 05:03:00,
2013-04-25 00:14:00,48.5,31.6,30.38,ENE,78,0.0,2.0,52,0.00,,,0.00,Weather View 32 v70,2013-04-25 05:14:00,
2013-04-25 00:23:00,48.0,32.1,30.38,ENE,77,0.0,2.0,54,0.00,,,0.00,Weather View 32 v70,2013-04-25 05:23:00,
2013-04-25 00:33:00,47.7,31.4,30.37,ENE,78,0.0,2.0,53,0.00,,,0.00,Weather View 32 v70,2013-04-25 05:33:00,
2013-04-25 00:38:00,47.7,31.8,30.37,ENE,78,0.0,2.0,54,0.00,,,0.00,Weather View 32 v70,2013-04-25 05:38:00,
2013-04-25 00:43:00,47.6,31.3,30.37,ENE,77,0.0,2.0,53,0.00,,,0.00,Weather View 32 v70,2013-04-25 05:43:00,
2013-04-25 00:53:00,47.4,31.6,30.37,ENE,78,0.0,3.0,54,0.00,,,0.00,Weather View 32 v70,2013-04-25 05:53:00,
2013-04-25 00:58:00,47.3,31.5,30.37,East,79,1.0,5.0,54,0.00,,,0.00,Weather View 32 v70,2013-04-25 05:58:00,
2013-04-25 01:08:00,47.3,31.5,30.37,SE,135,2.0,7.0,54,0.00,,,0.00,Weather View 32 v70,2013-04-25 06:08:00,
2013-04-25 01:13:00,47.2,31.4,30.37,South,176,1.0,7.0,54,0.00,,,0.00,Weather View 32 v70,2013-04-25 06:13:00,
2013-04-25 01:18:00,47.0,31.6,30.37,South,177,0.0,7.0,55,0.00,,,0.00,Weather View 32 v70,2013-04-25 06:18:00,
2013-04-25 01:28:00,46.9,31.6,30.37,South,177,0.0,7.0,55,0.00,,,0.00,Weather View 32 v70,2013-04-25 06:28:00,
2013-04-25 01:33:00,46.7,31.8,30.37,South,177,0.0,7.0,56,0.00,,,0.00,Weather View 32 v70,2013-04-25 06:33:00,
2013-04-25 01:38:00,46.6,32.2,30.37,South,177,0.0,7.0,57,0.00,,,0.00,Weather View 32 v70,2013-04-25 06:38:00,
2013-04-25 01:43:00,46.4,32.0,30.37,South,177,0.0,7.0,57,0.00,,,0.00,Weather View 32 v70,2013-04-25 06:43:00,
2013-04-25 01:53:00,46.2,31.8,30.37,South,177,0.0,7.0,57,0.00,,,0.00,Weather View 32 v70,2013-04-25 06:53:00,
2013-04-25 02:03:00,46.1,31.7,30.37,South,177,0.0,7.0,57,0.00,,,0.00,Weather View 32 v70,2013-04-25 07:03:00,
2013-04-25 02:13:00,46.1,31.3,30.37,South,177,0.0,6.0,56,0.00,,,0.00,Weather View 32 v70,2013-04-25 07:13:00,
2013-04-25 02:18:00,46.1,31.3,30.37,South,177,0.0,6.0,56,0.00,,,0.00,Weather View 32 v70,2013-04-25 07:18:00,
2013-04-25 02:28:00,45.7,31.3,30.36,South,177,0.0,5.0,57,0.00,,,0.00,Weather View 32 v70,2013-04-25 07:28:00,
2013-04-25 02:38:00,45.4,31.5,30.36,South,177,0.0,5.0,58,0.00,,,0.00,Weather View 32 v70,2013-04-25 07:38:00,
2013-04-25 02:48:00,45.2,31.3,30.36,South,177,3.0,5.0,58,0.00,,,0.00,Weather View 32 v70,2013-04-25 07:48:00,
2013-04-25 02:58:00,45.0,31.5,30.35,South,177,0.0,5.0,59,0.00,,,0.00,Weather View 32 v70,2013-04-25 07:58:00,
2013-04-25 03:03:00,44.8,31.7,30.35,South,177,0.0,4.0,60,0.00,,,0.00,Weather View 32 v70,2013-04-25 08:03:00,
2013-04-25 03:13:00,44.5,31.9,30.35,South,177,0.0,4.0,61,0.00,,,0.00,Weather View 32 v70,2013-04-25 08:13:00,
2013-04-25 03:18:00,44.5,31.9,30.35,South,177,0.0,4.0,61,0.00,,,0.00,Weather View 32 v70,2013-04-25 08:18:00,
2013-04-25 03:23:00,44.4,31.8,30.36,South,177,0.0,4.0,61,0.00,,,0.00,Weather View 32 v70,2013-04-25 08:23:00,
2013-04-25 03:33:00,44.3,32.1,30.36,South,177,0.0,4.0,62,0.00,,,0.00,Weather View 32 v70,2013-04-25 08:33:00,
2013-04-25 03:38:00,44.2,32.0,30.36,South,177,0.0,4.0,62,0.00,,,0.00,Weather View 32 v70,2013-04-25 08:38:00,
2013-04-25 03:43:00,44.1,32.3,30.36,South,177,0.0,4.0,63,0.00,,,0.00,Weather View 32 v70,2013-04-25 08:43:00,
2013-04-25 03:53:00,43.9,32.1,30.36,South,177,0.0,2.0,63,0.00,,,0.00,Weather View 32 v70,2013-04-25 08:53:00,
2013-04-25 03:58:00,43.9,32.1,30.36,South,177,0.0,2.0,63,0.00,,,0.00,Weather View 32 v70,2013-04-25 08:58:00,
2013-04-25 04:03:00,43.8,32.0,30.36,South,177,0.0,0.0,63,0.00,,,0.00,Weather View 32 v70,2013-04-25 09:03:00,
2013-04-25 04:08:00,43.7,32.3,30.36,South,177,0.0,0.0,64,0.00,,,0.00,Weather View 32 v70,2013-04-25 09:08:00,
2013-04-25 04:16:00,43.7,32.3,30.37,South,177,0.0,0.0,64,0.00,,,0.00,Weather View 32 v70,2013-04-25 09:16:00,
2013-04-25 04:23:00,43.7,32.3,30.36,South,177,0.0,0.0,64,0.00,,,0.00,Weather View 32 v70,2013-04-25 09:23:00,
2013-04-25 04:33:00,43.6,32.2,30.36,South,177,0.0,0.0,64,0.00,,,0.00,Weather View 32 v70,2013-04-25 09:33:00,
2013-04-25 04:38:00,43.8,32.4,30.36,South,177,0.0,0.0,64,0.00,,,0.00,Weather View 32 v70,2013-04-25 09:38:00,
2013-04-25 04:48:00,43.9,32.5,30.36,South,177,0.0,0.0,64,0.00,,,0.00,Weather View 32 v70,2013-04-25 09:48:00,
2013-04-25 04:53:00,43.8,32.4,30.36,South,177,0.0,0.0,64,0.00,,,0.00,Weather View 32 v70,2013-04-25 09:53:00,
2013-04-25 04:58:00,43.6,32.6,30.36,South,177,0.0,0.0,65,0.00,,,0.00,Weather View 32 v70,2013-04-25 09:58:00,
2013-04-25 05:03:00,43.5,32.5,30.37,South,177,0.0,0.0,65,0.00,,,0.00,Weather View 32 v70,2013-04-25 10:03:00,
2013-04-25 05:13:00,43.4,32.4,30.37,South,177,0.0,0.0,65,0.00,,,0.00,Weather View 32 v70,2013-04-25 10:13:00,
2013-04-25 05:18:00,43.3,32.3,30.37,South,177,0.0,0.0,65,0.00,,,0.00,Weather View 32 v70,2013-04-25 10:18:00,
2013-04-25 05:23:00,43.3,32.7,30.37,South,177,0.0,0.0,66,0.00,,,0.00,Weather View 32 v70,2013-04-25 10:23:00,
2013-04-25 05:33:00,43.1,32.5,30.37,South,177,0.0,0.0,66,0.00,,,0.00,Weather View 32 v70,2013-04-25 10:33:00,
2013-04-25 05:38:00,42.9,32.3,30.37,South,177,0.0,0.0,66,0.00,,,0.00,Weather View 32 v70,2013-04-25 10:38:00,
2013-04-25 05:48:00,42.7,33.2,30.37,South,177,0.0,0.0,69,0.00,,,0.00,Weather View 32 v70,2013-04-25 10:48:00,
2013-04-25 05:58:00,42.4,33.3,30.38,South,177,0.0,0.0,70,0.00,,,0.00,Weather View 32 v70,2013-04-25 10:58:00,
2013-04-25 06:08:00,42.0,33.3,30.38,South,177,0.0,0.0,71,0.00,,,0.00,Weather View 32 v70,2013-04-25 11:08:00,
2013-04-25 06:17:00,41.9,33.5,30.38,South,177,0.0,0.0,72,0.00,,,0.00,Weather View 32 v70,2013-04-25 11:17:00,
2013-04-25 06:23:00,41.5,33.5,30.38,South,177,0.0,0.0,73,0.00,,,0.00,Weather View 32 v70,2013-04-25 11:23:00,
2013-04-25 06:28:00,41.4,33.4,30.38,South,177,0.0,0.0,73,0.00,,,0.00,Weather View 32 v70,2013-04-25 11:28:00,
2013-04-25 06:38:00,41.5,35.1,30.39,South,177,0.0,0.0,78,0.00,,,0.00,Weather View 32 v70,2013-04-25 11:38:00,
2013-04-25 06:48:00,41.6,34.6,30.39,South,177,0.0,0.0,76,0.00,,,0.00,Weather View 32 v70,2013-04-25 11:48:00,
2013-04-25 06:53:00,41.5,34.2,30.39,South,177,0.0,0.0,75,0.00,,,0.00,Weather View 32 v70,2013-04-25 11:53:00,
2013-04-25 06:58:00,41.5,33.8,30.39,South,177,0.0,0.0,74,0.00,,,0.00,Weather View 32 v70,2013-04-25 11:58:00,
2013-04-25 07:08:00,41.8,34.5,30.40,South,177,0.0,0.0,75,0.00,,,0.00,Weather View 32 v70,2013-04-25 12:08:00,
2013-04-25 07:18:00,42.0,34.3,30.40,South,177,0.0,0.0,74,0.00,,,0.00,Weather View 32 v70,2013-04-25 12:18:00,
2013-04-25 07:23:00,42.9,34.5,30.39,South,177,0.0,0.0,72,0.00,,,0.00,Weather View 32 v70,2013-04-25 12:23:00,
2013-04-25 07:28:00,43.6,35.2,30.40,South,177,0.0,0.0,72,0.00,,,0.00,Weather View 32 v70,2013-04-25 12:28:00,
2013-04-25 07:38:00,44.5,35.7,30.40,South,177,0.0,0.0,71,0.00,,,0.00,Weather View 32 v70,2013-04-25 12:38:00,
2013-04-25 07:43:00,44.9,35.3,30.40,South,177,0.0,0.0,69,0.00,,,0.00,Weather View 32 v70,2013-04-25 12:43:00,
2013-04-25 07:53:00,45.6,35.6,30.41,South,177,0.0,0.0,68,0.00,,,0.00,Weather View 32 v70,2013-04-25 12:53:00,
2013-04-25 07:58:00,45.9,35.2,30.41,South,177,0.0,0.0,66,0.00,,,0.00,Weather View 32 v70,2013-04-25 12:58:00,
2013-04-25 08:03:00,46.1,35.0,30.41,South,177,0.0,0.0,65,0.00,,,0.00,Weather View 32 v70,2013-04-25 13:03:00,
2013-04-25 08:13:00,46.5,35.4,30.41,South,177,0.0,0.0,65,0.00,,,0.00,Weather View 32 v70,2013-04-25 13:13:00,
2013-04-25 08:18:00,47.1,35.1,30.41,South,177,0.0,0.0,63,0.00,,,0.00,Weather View 32 v70,2013-04-25 13:18:00,
2013-04-25 08:23:00,47.5,34.7,30.41,South,177,0.0,0.0,61,0.00,,,0.00,Weather View 32 v70,2013-04-25 13:23:00,
2013-04-25 08:33:00,48.6,34.9,30.41,South,177,0.0,0.0,59,0.00,,,0.00,Weather View 32 v70,2013-04-25 13:33:00,
2013-04-25 08:43:00,49.6,34.5,30.41,South,177,0.0,0.0,56,0.00,,,0.00,Weather View 32 v70,2013-04-25 13:43:00,
2013-04-25 08:53:00,50.5,34.9,30.42,South,177,0.0,3.0,55,0.00,,,0.00,Weather View 32 v70,2013-04-25 13:53:00,
2013-04-25 08:58:00,50.9,34.3,30.42,South,177,4.0,5.0,53,0.00,,,0.00,Weather View 32 v70,2013-04-25 13:58:00,
2013-04-25 09:08:00,52.1,33.5,30.42,South,177,2.0,6.0,49,0.00,,,0.00,Weather View 32 v70,2013-04-25 14:08:00,
2013-04-25 09:13:00,52.4,33.8,30.42,South,184,1.0,7.0,49,0.00,,,0.00,Weather View 32 v70,2013-04-25 14:13:00,
2013-04-25 09:19:00,53.0,33.8,30.42,South,185,0.0,7.0,48,0.00,,,0.00,Weather View 32 v70,2013-04-25 14:19:00,
2013-04-25 09:28:00,54.0,33.6,30.42,South,184,2.0,7.0,46,0.00,,,0.00,Weather View 32 v70,2013-04-25 14:28:00,
2013-04-25 09:38:00,54.9,32.8,30.42,South,169,6.0,7.0,43,0.00,,,0.00,Weather View 32 v70,2013-04-25 14:38:00,
2013-04-25 09:43:00,55.1,33.0,30.42,South,170,0.0,7.0,43,0.00,,,0.00,Weather View 32 v70,2013-04-25 14:43:00,
2013-04-25 09:53:00,56.0,33.2,30.42,South,170,0.0,7.0,42,0.00,,,0.00,Weather View 32 v70,2013-04-25 14:53:00,
2013-04-25 10:03:00,56.5,31.8,30.41,South,171,0.0,7.0,39,0.00,,,0.00,Weather View 32 v70,2013-04-25 15:03:00,
2013-04-25 10:13:00,57.2,33.0,30.41,South,175,0.0,6.0,40,0.00,,,0.00,Weather View 32 v70,2013-04-25 15:13:00,
2013-04-25 10:19:00,57.5,32.0,30.41,South,175,0.0,6.0,38,0.00,,,0.00,Weather View 32 v70,2013-04-25 15:19:00,
2013-04-25 10:28:00,58.3,32.1,30.41,South,175,0.0,6.0,37,0.00,,,0.00,Weather View 32 v70,2013-04-25 15:28:00,
2013-04-25 10:38:00,58.8,33.2,30.41,South,176,0.0,6.0,38,0.00,,,0.00,Weather View 32 v70,2013-04-25 15:38:00,
2013-04-25 10:48:00,59.5,33.2,30.40,South,176,0.0,6.0,37,0.00,,,0.00,Weather View 32 v70,2013-04-25 15:48:00,
2013-04-25 10:58:00,60.4,33.3,30.40,South,175,0.0,6.0,36,0.00,,,0.00,Weather View 32 v70,2013-04-25 15:58:00,
2013-04-25 11:03:00,61.1,33.2,30.40,South,175,0.0,6.0,35,0.00,,,0.00,Weather View 32 v70,2013-04-25 16:03:00,
2013-04-25 11:13:00,61.5,32.8,30.40,South,174,0.0,6.0,34,0.00,,,0.00,Weather View 32 v70,2013-04-25 16:13:00,
2013-04-25 11:20:00,61.9,32.4,30.40,South,174,3.0,4.0,33,0.00,,,0.00,Weather View 32 v70,2013-04-25 16:20:00,
2013-04-25 11:28:00,62.4,30.5,30.40,South,174,0.0,4.0,30,0.00,,,0.00,Weather View 32 v70,2013-04-25 16:28:00,
2013-04-25 11:38:00,63.1,31.1,30.39,South,174,2.0,4.0,30,0.00,,,0.00,Weather View 32 v70,2013-04-25 16:38:00,
2013-04-25 11:48:00,63.5,32.3,30.39,SSE,166,0.0,4.0,31,0.00,,,0.00,Weather View 32 v70,2013-04-25 16:48:00,
2013-04-25 11:53:00,63.7,31.6,30.39,SE,141,0.0,5.0,30,0.00,,,0.00,Weather View 32 v70,2013-04-25 16:53:00,
2013-04-25 11:58:00,64.0,31.9,30.39,SE,140,0.0,5.0,30,0.00,,,0.00,Weather View 32 v70,2013-04-25 16:58:00,
2013-04-25 12:08:00,64.6,29.8,30.39,South,169,0.0,6.0,27,0.00,,,0.00,Weather View 32 v70,2013-04-25 17:08:00,
2013-04-25 12:18:00,65.2,28.4,30.38,SSE,164,0.0,6.0,25,0.00,,,0.00,Weather View 32 v70,2013-04-25 17:18:00,
2013-04-25 12:23:00,65.3,28.5,30.37,SSE,160,0.0,6.0,25,0.00,,,0.00,Weather View 32 v70,2013-04-25 17:23:00,
2013-04-25 12:33:00,65.9,28.0,30.37,SSE,159,0.0,8.0,24,0.00,,,0.00,Weather View 32 v70,2013-04-25 17:33:00,
2013-04-25 12:43:00,66.0,27.1,30.36,SSE,160,0.0,10.0,23,0.00,,,0.00,Weather View 32 v70,2013-04-25 17:43:00,
2013-04-25 12:53:00,66.3,29.3,30.36,SSE,162,0.0,10.0,25,0.00,,,0.00,Weather View 32 v70,2013-04-25 17:53:00,
2013-04-25 13:03:00,67.0,29.9,30.36,SE,127,7.0,10.0,25,0.00,,,0.00,Weather View 32 v70,2013-04-25 18:03:00,
2013-04-25 13:08:00,66.9,30.8,30.36,SE,129,0.0,10.0,26,0.00,,,0.00,Weather View 32 v70,2013-04-25 18:08:00,
2013-04-25 13:18:00,67.7,31.5,30.36,SE,125,3.0,10.0,26,0.00,,,0.00,Weather View 32 v70,2013-04-25 18:18:00,
2013-04-25 13:23:00,67.9,31.7,30.35,South,177,7.0,10.0,26,0.00,,,0.00,Weather View 32 v70,2013-04-25 18:23:00,
2013-04-25 13:33:00,67.9,31.7,30.34,South,187,0.0,10.0,26,0.00,,,0.00,Weather View 32 v70,2013-04-25 18:33:00,
2013-04-25 13:43:00,68.9,30.5,30.34,ESE,122,8.0,10.0,24,0.00,,,0.00,Weather View 32 v70,2013-04-25 18:43:00,
2013-04-25 13:53:00,68.8,27.2,30.34,SSE,152,0.0,10.0,21,0.00,,,0.00,Weather View 32 v70,2013-04-25 18:53:00,
2013-04-25 14:03:00,69.4,31.0,30.34,SSE,160,0.0,10.0,24,0.00,,,0.00,Weather View 32 v70,2013-04-25 19:03:00,
2013-04-25 14:08:00,69.5,28.9,30.33,South,172,1.0,11.0,22,0.00,,,0.00,Weather View 32 v70,2013-04-25 19:08:00,
2013-04-25 14:18:00,69.1,30.7,30.33,South,191,5.0,11.0,24,0.00,,,0.00,Weather View 32 v70,2013-04-25 19:18:00,
2013-04-25 14:23:00,69.4,29.9,30.33,ESE,110,5.0,11.0,23,0.00,,,0.00,Weather View 32 v70,2013-04-25 19:23:00,
2013-04-25 14:33:00,69.6,31.1,30.33,ESE,119,1.0,11.0,24,0.00,,,0.00,Weather View 32 v70,2013-04-25 19:33:00,
2013-04-25 14:43:00,70.0,31.5,30.32,SSW,199,6.0,11.0,24,0.00,,,0.00,Weather View 32 v70,2013-04-25 19:43:00,
2013-04-25 14:48:00,70.1,31.5,30.32,SE,129,0.0,11.0,24,0.00,,,0.00,Weather View 32 v70,2013-04-25 19:48:00,
2013-04-25 14:53:00,70.1,30.5,30.32,SE,135,0.0,11.0,23,0.00,,,0.00,Weather View 32 v70,2013-04-25 19:53:00,
2013-04-25 14:58:00,70.1,30.5,30.32,SE,129,6.0,11.0,23,0.00,,,0.00,Weather View 32 v70,2013-04-25 19:58:00,
2013-04-25 15:08:00,69.8,30.2,30.32,South,170,0.0,11.0,23,0.00,,,0.00,Weather View 32 v70,2013-04-25 20:08:00,
2013-04-25 15:18:00,70.2,31.6,30.32,SE,125,8.0,11.0,24,0.00,,,0.00,Weather View 32 v70,2013-04-25 20:18:00,
2013-04-25 15:23:00,70.0,32.5,30.31,South,172,7.0,11.0,25,0.00,,,0.00,Weather View 32 v70,2013-04-25 20:23:00,
2013-04-25 15:28:00,70.0,30.4,30.31,SSW,199,5.0,11.0,23,0.00,,,0.00,Weather View 32 v70,2013-04-25 20:28:00,
2013-04-25 15:38:00,69.9,31.4,30.31,SE,133,3.0,12.0,24,0.00,,,0.00,Weather View 32 v70,2013-04-25 20:38:00,
2013-04-25 15:48:00,70.1,30.5,30.30,ESE,114,10.0,12.0,23,0.00,,,0.00,Weather View 32 v70,2013-04-25 20:48:00,
2013-04-25 15:53:00,70.3,29.6,30.30,South,181,9.0,13.0,22,0.00,,,0.00,Weather View 32 v70,2013-04-25 20:53:00,
2013-04-25 15:58:00,69.9,30.3,30.30,SSE,149,4.0,13.0,23,0.00,,,0.00,Weather View 32 v70,2013-04-25 20:58:00,
2013-04-25 16:08:00,69.8,31.3,30.29,South,178,4.0,13.0,24,0.00,,,0.00,Weather View 32 v70,2013-04-25 21:08:00,
2013-04-25 16:13:00,69.9,31.4,30.29,South,169,1.0,13.0,24,0.00,,,0.00,Weather View 32 v70,2013-04-25 21:13:00,
2013-04-25 16:23:00,69.7,31.2,30.28,ESE,123,1.0,13.0,24,0.00,,,0.00,Weather View 32 v70,2013-04-25 21:23:00,
2013-04-25 16:28:00,69.9,31.4,30.27,SE,124,9.0,13.0,24,0.00,,,0.00,Weather View 32 v70,2013-04-25 21:28:00,
2013-04-25 16:38:00,69.4,32.0,30.27,SE,128,4.0,14.0,25,0.00,,,0.00,Weather View 32 v70,2013-04-25 21:38:00,
2013-04-25 16:43:00,69.0,32.6,30.27,SE,127,6.0,14.0,26,0.00,,,0.00,Weather View 32 v70,2013-04-25 21:43:00,
2013-04-25 16:53:00,68.9,31.5,30.26,SE,127,0.0,14.0,25,0.00,,,0.00,Weather View 32 v70,2013-04-25 21:53:00,
2013-04-25 17:03:00,69.2,30.8,30.26,SE,145,0.0,14.0,24,0.00,,,0.00,Weather View 32 v70,2013-04-25 22:03:00,
2013-04-25 17:13:00,69.4,28.8,30.26,SE,140,3.0,14.0,22,0.00,,,0.00,Weather View 32 v70,2013-04-25 22:13:00,
2013-04-25 17:23:00,69.2,28.6,30.25,ESE,120,3.0,14.0,22,0.00,,,0.00,Weather View 32 v70,2013-04-25 22:23:00,
2013-04-25 17:28:00,68.9,29.5,30.25,SE,135,0.0,14.0,23,0.00,,,0.00,Weather View 32 v70,2013-04-25 22:28:00,
2013-04-25 17:33:00,68.7,29.3,30.25,SSE,168,0.0,13.0,23,0.00,,,0.00,Weather View 32 v70,2013-04-25 22:33:00,
2013-04-25 17:43:00,68.6,30.3,30.25,South,172,5.0,13.0,24,0.00,,,0.00,Weather View 32 v70,2013-04-25 22:43:00,
2013-04-25 17:53:00,68.6,31.3,30.26,SSE,158,1.0,13.0,25,0.00,,,0.00,Weather View 32 v70,2013-04-25 22:53:00,
2013-04-25 17:58:00,68.7,31.4,30.26,SE,130,0.0,11.0,25,0.00,,,0.00,Weather View 32 v70,2013-04-25 22:58:00,
2013-04-25 18:08:00,68.6,32.3,30.25,SE,135,6.0,11.0,26,0.00,,,0.00,Weather View 32 v70,2013-04-25 23:08:00,
2013-04-25 18:18:00,68.8,32.4,30.25,SSE,162,2.0,11.0,26,0.00,,,0.00,Weather View 32 v70,2013-04-25 23:18:00,
2013-04-25 18:24:00,68.6,31.3,30.25,SE,137,1.0,11.0,25,0.00,,,0.00,Weather View 32 v70,2013-04-25 23:24:00,
2013-04-25 18:33:00,68.7,32.3,30.25,SE,130,3.0,10.0,26,0.00,,,0.00,Weather View 32 v70,2013-04-25 23:33:00,
2013-04-25 18:43:00,68.7,31.4,30.24,SE,125,3.0,9.0,25,0.00,,,0.00,Weather View 32 v70,2013-04-25 23:43:00,
2013-04-25 18:53:00,68.5,30.2,30.24,SE,126,2.0,10.0,24,0.00,,,0.00,Weather View 32 v70,2013-04-25 23:53:00,
2013-04-25 18:58:00,68.5,29.2,30.24,ESE,122,5.0,10.0,23,0.00,,,0.00,Weather View 32 v70,2013-04-25 23:58:00,
2013-04-25 19:08:00,68.3,29.0,30.24,SE,145,2.0,10.0,23,0.00,,,0.00,Weather View 32 v70,2013-04-26 00:08:00,
2013-04-25 19:18:00,68.1,28.8,30.24,SE,135,5.0,10.0,23,0.00,,,0.00,Weather View 32 v70,2013-04-26 00:18:00,
2013-04-25 19:24:00,67.9,28.6,30.24,ESE,115,3.0,10.0,23,0.00,,,0.00,Weather View 32 v70,2013-04-26 00:24:00,
2013-04-25 19:33:00,67.7,29.5,30.23,ESE,122,0.0,10.0,24,0.00,,,0.00,Weather View 32 v70,2013-04-26 00:33:00,
2013-04-25 19:43:00,67.5,31.3,30.24,ESE,122,0.0,10.0,26,0.00,,,0.00,Weather View 32 v70,2013-04-26 00:43:00,
2013-04-25 19:48:00,67.5,31.3,30.24,ESE,122,0.0,10.0,26,0.00,,,0.00,Weather View 32 v70,2013-04-26 00:48:00,
2013-04-25 19:58:00,67.2,31.1,30.23,ESE,122,0.0,9.0,26,0.00,,,0.00,Weather View 32 v70,2013-04-26 00:58:00,
2013-04-25 20:08:00,66.9,31.8,30.22,ESE,114,0.0,7.0,27,0.00,,,0.00,Weather View 32 v70,2013-04-26 01:08:00,
2013-04-25 20:18:00,66.5,32.3,30.22,ESE,115,0.0,7.0,28,0.00,,,0.00,Weather View 32 v70,2013-04-26 01:18:00,
2013-04-25 20:23:00,66.3,32.1,30.22,ESE,115,0.0,7.0,28,0.00,,,0.00,Weather View 32 v70,2013-04-26 01:23:00,
2013-04-25 20:28:00,66.1,32.0,30.22,ESE,116,2.0,7.0,28,0.00,,,0.00,Weather View 32 v70,2013-04-26 01:28:00,
2013-04-25 20:38:00,65.7,32.5,30.22,ESE,116,1.0,7.0,29,0.00,,,0.00,Weather View 32 v70,2013-04-26 01:38:00,
2013-04-25 20:43:00,65.5,33.2,30.21,ESE,116,3.0,7.0,30,0.00,,,0.00,Weather View 32 v70,2013-04-26 01:43:00,
2013-04-25 20:53:00,65.0,32.7,30.21,ESE,116,1.0,7.0,30,0.00,,,0.00,Weather View 32 v70,2013-04-26 01:53:00,
2013-04-25 21:03:00,64.7,33.3,30.22,ESE,116,0.0,7.0,31,0.00,,,0.00,Weather View 32 v70,2013-04-26 02:03:00,
2013-04-25 21:08:00,64.6,33.2,30.22,ESE,116,0.0,7.0,31,0.00,,,0.00,Weather View 32 v70,2013-04-26 02:08:00,
2013-04-25 21:18:00,64.3,33.7,30.22,ESE,116,0.0,7.0,32,0.00,,,0.00,Weather View 32 v70,2013-04-26 02:18:00,
2013-04-25 21:25:00,64.3,33.7,30.22,ESE,116,0.0,7.0,32,0.00,,,0.00,Weather View 32 v70,2013-04-26 02:25:00,
2013-04-25 21:33:00,64.3,33.7,30.22,ESE,116,0.0,4.0,32,0.00,,,0.00,Weather View 32 v70,2013-04-26 02:33:00,
2013-04-25 21:38:00,64.3,34.5,30.22,ESE,116,1.0,4.0,33,0.00,,,0.00,Weather View 32 v70,2013-04-26 02:38:00,
2013-04-25 21:48:00,64.4,34.6,30.22,ESE,123,2.0,8.0,33,0.00,,,0.00,Weather View 32 v70,2013-04-26 02:48:00,
2013-04-25 21:54:00,64.6,34.8,30.22,SE,127,7.0,10.0,33,0.00,,,0.00,Weather View 32 v70,2013-04-26 02:54:00,
2013-04-25 22:04:00,64.6,34.0,30.22,SE,126,4.0,10.0,32,0.00,,,0.00,Weather View 32 v70,2013-04-26 03:04:00,
2013-04-25 22:14:00,64.6,34.8,30.21,SE,126,4.0,10.0,33,0.00,,,0.00,Weather View 32 v70,2013-04-26 03:14:00,
2013-04-25 22:19:00,64.6,34.8,30.21,ESE,122,5.0,10.0,33,0.00,,,0.00,Weather View 32 v70,2013-04-26 03:19:00,
2013-04-25 22:27:00,64.5,34.7,30.21,SE,129,6.0,10.0,33,0.00,,,0.00,Weather View 32 v70,2013-04-26 03:27:00,
2013-04-25 22:34:00,64.3,35.3,30.21,ESE,122,3.0,11.0,34,0.00,,,0.00,Weather View 32 v70,2013-04-26 03:34:00,
2013-04-25 22:39:00,64.1,35.1,30.21,SE,124,0.0,11.0,34,0.00,,,0.00,Weather View 32 v70,2013-04-26 03:39:00,
2013-04-25 22:44:00,64.0,35.0,30.21,SE,127,4.0,11.0,34,0.00,,,0.00,Weather View 32 v70,2013-04-26 03:44:00,
2013-04-25 22:54:00,63.9,35.6,30.21,SE,127,3.0,11.0,35,0.00,,,0.00,Weather View 32 v70,2013-04-26 03:54:00,
2013-04-25 23:04:00,63.8,35.6,30.21,SE,127,4.0,11.0,35,0.00,,,0.00,Weather View 32 v70,2013-04-26 04:04:00,
2013-04-25 23:09:00,63.7,35.5,30.22,ESE,121,0.0,12.0,35,0.00,,,0.00,Weather View 32 v70,2013-04-26 04:09:00,
2013-04-25 23:19:00,63.6,36.8,30.22,SE,142,6.0,12.0,37,0.00,,,0.00,Weather View 32 v70,2013-04-26 04:19:00,
2013-04-25 23:24:00,63.5,37.4,30.22,SSE,156,3.0,12.0,38,0.00,,,0.00,Weather View 32 v70,2013-04-26 04:24:00,
2013-04-25 23:28:00,63.5,37.4,30.22,SSE,156,3.0,12.0,38,0.00,,,0.00,Weather View 32 v70,2013-04-26 04:28:00,
2013-04-25 23:34:00,63.3,37.9,30.22,SSE,152,3.0,12.0,39,0.00,,,0.00,Weather View 32 v70,2013-04-26 04:34:00,
2013-04-25 23:39:00,63.2,38.4,30.22,SSE,147,2.0,12.0,40,0.00,,,0.00,Weather View 32 v70,2013-04-26 04:39:00,
2013-04-25 23:44:00,63.2,38.4,30.23,SSE,147,0.0,12.0,40,0.00,,,0.00,Weather View 32 v70,2013-04-26 04:44:00,
2013-04-25 23:54:00,63.1,39.0,30.22,SSE,164,0.0,12.0,41,0.00,,,0.00,Weather View 32 v70,2013-04-26 04:54:00,
2013-04-25 23:59:00,63.2,39.1,30.22,South,170,1.0,12.0,41,0.00,,,0.00,Weather View 32 v70,2013-04-26 04:59:00,